Regional Weather Roundup
Issued by NWS Charleston, SC

Current Version | Previous Version | Graphics & Text | Print | Product List | Glossary On
Versions: 1 2 3 4 5 6 7 8 9 10 11 12 13 14 15 16 17 18 19 20 21 22 23 24 25 26 27 28 29 30 31 32 33 34 35 36 37 38 39 40 41 42 43 44 45 46 47 48 49 50
000
ASUS42 KCHS 220710
RWRCHS

REGIONAL WEATHER ROUNDUP
NATIONAL WEATHER SERVICE CHARLESTON SC
300 AM EDT TUE JUL 22 2014

NOTE: "FAIR" INDICATES FEW OR NO CLOUDS BELOW 12,000 FEET WITH NO
SIGNIFICANT WEATHER AND/OR OBSTRUCTIONS TO VISIBILITY.

NOT ALL STATIONS ARE QUALITY CONTROLLED BY THE NATIONAL
WEATHER SERVICE. USE DATA WITH CAUTION...ESPECIALLY
DEWPOINT OBSERVATIONS.

SCZ027-030-031-034>040-042>050-220800-
...SOUTH CAROLINA...

CITY           SKY/WX    TMP DP  RH WIND       PRES   REMARKS
N CHARLESTON   MOCLDY    77  74  90 NE5       30.04F
WATERFRONT PRK   N/A     81 N/A N/A SE7         N/A
FORT JOHNSON   NOT AVBL
MOUNT PLEASANT FAIR      75  75 100 CALM      30.04F FOG
JOHNS ISLAND   MOSUNNY   77  68  73 CALM      30.04F
PINOPOLIS        N/A     75  73  94 E8        29.99F
MONCKS CORNER    N/A     75  75 100 CALM      30.05F FOG
SUMMERVILLE    CLOUDY    73  73 100 N3        30.06F
BEAUFORT MCAS  MOCLDY    76  74  93 NE3       30.03F
BEAUFORT ARPT  FAIR      77  77 100 CALM      30.02F
HILTON HEAD IS CLOUDY    73  73 100 CALM      30.04F FOG
GEORGETOWN     NOT AVBL
WALTERBORO     PTSUNNY   73 N/A N/A CALM      30.05F
ORANGEBURG     LGT RAIN  73  71  93 NE6       30.07F
BARNWELL       DRIZZLE   73  72  94 NE6       30.07F
AIKEN          RAIN      72  72 100 NE6       30.13S
MANNING        CLOUDY    73 N/A N/A MISG      30.07F
KINGSTREE      NOT AVBL
COLUMBIA       CLOUDY    75  71  87 NE5       30.08F
SUMTER         CLOUDY    73  73 100 NE6       30.07F
FLORENCE       CLOUDY    74  72  93 NE5       30.09F
MYRTLE BEACH     N/A     73  72  94 N7        30.07F
N MYRTLE BEACH PTCLDY    74  72  93 N3        30.07S

$$

GAZ063-065-086>088-099>101-113>116-118-119-134-136>141-150-220800-
...GEORGIA...

CITY           SKY/WX    TMP DP  RH WIND       PRES   REMARKS
SAVANNAH ARPT  PTCLDY    73  71  93 CALM      30.03F
HUNTER AAF     PTCLDY    72  72 100 N2        30.01F
FORT STEWART   CLOUDY    74  72  95 CALM      30.03R
STATESBORO     NOT AVBL
SYLVANIA       CLOUDY    74  74 100 N3        30.06F FOG
CLAXTON        CLOUDY   N/A N/A N/A CALM      30.04F
THOMSON        CLOUDY    74  74 100 CALM      30.13S
AUGUSTA-BUSH   LGT RAIN  73  71  93 N6        30.07F
AUGUSTA-DANIEL CLOUDY    73  71  93 NE6       30.09S
SWAINSBORO     CLOUDY    73  73 100 NE3       30.07F
VIDALIA          N/A     73  72  94 CALM      30.05F
ALMA           CLOUDY    72  70  93 CALM      30.03F
WAYCROSS       CLOUDY    77  75  93 CALM      30.03F
JESUP          NOT AVBL
BRUNSWICK        N/A     72  70  94 CALM      30.02F VSB 1
SAINT SIMONS   MOCLDY    74  73  97 NW3       30.01F

$$

SCZ027-028-034-036>038-045-046-048>050-GAZ119-141-220800-
...LAKE AND SUPPLEMENTAL COASTAL OBSERVATIONS...

STATION/POSITION TIME  TEMP    WIND        PRES    WAVE   SWELL
                       AIR SEA DIR/SP/G            HT/PER HT/PER/DIR
                 (UTC) (F)     (DEG/KT/KT) (MB)    (FT/S) (FT/S/D)
UPR LAKE MARION  NOT AVBL
WINYAH BAY       0600   80     100/  5     1018.0S
LAKE MURRAY      0600   72      60/  2/  6 1018.6F
ACE BASIN NERRS  0600   75        CALM     1018.0R
FORT PULASKI     0700   75      30/  1/  2 1017.1F
SAPELO ISLAND    0600   76     240/  1     1018.0S

$$

ANZ835-935-AMZ111-154-330-350-352-354-374-450-454-472-220800-
...C-MAN AND BUOY OBSERVATIONS...

STATION/POSITION TIME  TEMP    WIND        PRES    WAVE   SWELL
                       AIR SEA DIR/SP/G            HT/PER HT/PER/DIR
                 (UTC) (F)     (DEG/KT/KT) (MB)    (FT/S) (FT/S/D)
FOLLY BEACH CMAN 0600   81     140/  9/ 10 1018.0F
BUOY 41004       0700   82 82  160/  8/  8 1016.6F   3/ 8   3/ 8
BUOY 41008       0700   79 83  160/  6/ 10 1016.5F   2/ 8   2/110/ 8
5E ST. MARYS GA  0700      83                N/A     2/ 8
FRYING PAN BUOY  NOT AVBL
BUOY 41025       0700          VRB 10/ 12  1019.5F   3/ 7   3/140/ 7
CAPE LOOKOUT NC  0600   79     200/  8/ 10 1019.1F
BUOY 41002       0611   81 82  190/ 12/ 14 1020.6    4/ 7   3/130/ 7
BUOY 41010       0700   82 83  130/ 14/ 16 1017.6F   3/ 7   2/ 90/ 7
BUOY 41012       NOT AVBL
ST AUGUSTINE FL  0700   78     140/  5/  6 1017.5F
CAPERS NEARSHORE 0600   81     140/  8/ 10   N/A
FRIPP NEARSHORE  NOT AVBL


$$


USA.gov is the U.S. government's official web portal to all federal, state and local government web resources and services.